Volver al catálogo

NOAA 16 DEB

ActivoSSO
NORAD 41154·DEBRIS·🇺🇸 United States

Lanzado Sep 21, 2000 desde Vandenberg Space Force Base

Loading…

Próximos Pases (próximas 24 horas)

TLE

ActualizadoSource: Space-Track

Época: Sep 14, 2026, 06:39 UTC

1 41154U 00055CM  26257.27720419  .00001804  00000-0  98484-3 0  9998
2 41154  98.7602 276.3037 0057252  84.8862 275.8842 14.12459602552174

Sigue NOAA 16 DEB en tiempo real con AllMySat

Download on the App Store